Location: Theydon Bois
(51.6750°N, 0.1050°E)
Time: 11:41:43
(UTC+00:00)

Envisat - Pass Details

Date: 13 December 2019
Orbit: 764 x 766 km, 98.1° (Epoch: 18 January)

Event Time Altitude Azimuth Distance (km) Brightness Sun altitude
Rises 17:26:07 0° 156° (SSE) 3,223 6.2 -13.9°
Reaches altitude 10° 17:28:25 10° 154° (SSE) 2,301 5.4 -14.2°
Maximum altitude 17:33:27 71° 72° (ENE) 816 2.9 -15.0°
Drops below altitude 10° 17:38:32 10° 349° (N) 2,317 5.4 -15.7°
Sets 17:40:51 0° 348° (NNW) 3,248 6.2 -16.1°
